Location: Bukit Nyuki
(2.5885°N, 113.7476°E)
Time: 14:53:08
(UTC+00:00)

Cosmos 1869 - Pass Details

Date: 18 May 2021
Orbit: 521 x 560 km, 82.5° (Epoch: 15 June)

Event Time Altitude Azimuth Distance (km) Brightness Sun altitude
Rises 21:20:39 0° 5° (N) 2,702 7.2 -13.4°
Reaches altitude 10° 21:22:51 10° 11° (NNE) 1,817 6.4 -12.9°
Maximum altitude 21:26:43 48° 86° (E) 729 4.4 -12.0°
Drops below altitude 10° 21:30:38 10° 161° (SSE) 1,841 6.0 -11.1°
Sets 21:32:52 0° 167° (SSE) 2,740 6.8 -10.5°
